Tracking 29892 objects as of 21-Nov-2024
HD Live streaming from Space Station
objects crossing your sky now

STARLINK-31758

Track STARLINK-31758 now!
10-day predictions
STARLINK-31758 is classified as:


NORAD ID: 59621
Int'l Code: 2024-080W
Perigee: 450.3 km
Apogee: 452.3 km
Inclination: 43.0 °
Period: 93.5 minutes
Semi major axis: 6822 km
RCS: Unknown
Launch date: April 28, 2024
Source: United States (US)
Launch site: AIR FORCE EASTERN TEST RANGE (AFETR)
Your satellite tracking list
Your tracking list is empty




NASA's NSSDC Master Catalog

Two Line Element Set (TLE):
1 59621U 24080W   24326.07717143  .00007576  00000-0  18871-3 0  9997
2 59621  43.0017 212.1991 0001462 291.3111  68.7589 15.40657332 33045
Source of the keplerian elements: AFSPC